Total_Precipitation_Accumulation
0.51 0.46 0.47 0.43 0.37 0.31 0.25 0.21 0.16 0.13 0.12 0.10 0.09 0.07 0.06 0.06 0.06 0.05 0.05 0.03 0.03 0.04 0.06 0.10 0.13 0.17 0.23 0.29 0.34 0.37 0.34 0.30 0.28 0.27 0.26 0.24 0.23 0.22 0.24 0.24 0.24 0.23 0.23
0.60 0.55 0.48 0.45 0.41 0.34 0.29 0.24 0.19 0.17 0.15 0.13 0.11 0.10 0.09 0.08 0.07 0.08 0.07 0.06 0.04 0.03 0.04 0.07 0.13 0.22 0.32 0.40 0.45 0.45 0.41 0.37 0.34 0.33 0.32 0.29 0.27 0.26 0.26 0.26 0.27 0.26 0.27
0.69 0.66 0.55 0.46 0.41 0.39 0.36 0.32 0.29 0.25 0.18 0.14 0.11 0.10 0.10 0.09 0.08 0.08 0.07 0.07 0.06 0.05 0.04 0.06 0.10 0.19 0.31 0.40 0.48 0.53 0.50 0.45 0.41 0.38 0.37 0.36 0.34 0.33 0.34 0.34 0.33 0.31 0.31
0.86 0.79 0.68 0.56 0.55 0.55 0.50 0.42 0.37 0.30 0.22 0.18 0.15 0.13 0.12 0.10 0.09 0.08 0.07 0.06 0.06 0.05 0.05 0.05 0.08 0.14 0.22 0.32 0.45 0.57 0.60 0.58 0.53 0.47 0.43 0.40 0.39 0.39 0.40 0.40 0.41 0.41 0.41
0.93 0.88 0.76 0.71 0.73 0.66 0.56 0.48 0.41 0.36 0.29 0.26 0.24 0.21 0.18 0.15 0.13 0.12 0.10 0.09 0.08 0.07 0.08 0.08 0.09 0.11 0.14 0.19 0.30 0.46 0.59 0.63 0.58 0.50 0.46 0.44 0.42 0.42 0.42 0.43 0.43 0.44 0.46
1.00 0.94 0.84 0.83 0.88 0.82 0.70 0.62 0.53 0.48 0.42 0.39 0.36 0.27 0.22 0.20 0.17 0.15 0.13 0.12 0.12 0.12 0.12 0.12 0.13 0.12 0.13 0.15 0.19 0.30 0.46 0.58 0.59 0.55 0.52 0.49 0.47 0.47 0.49 0.50 0.50 0.49 0.49
1.25 1.14 0.96 0.93 0.97 0.89 0.79 0.77 0.76 0.72 0.62 0.59 0.52 0.36 0.25 0.21 0.18 0.14 0.14 0.13 0.13 0.14 0.14 0.16 0.16 0.15 0.15 0.16 0.19 0.21 0.30 0.47 0.60 0.64 0.61 0.57 0.56 0.56 0.59 0.63 0.65 0.65 0.65
1.28 1.26 1.21 1.14 1.13 1.10 1.05 0.99 0.96 0.90 0.82 0.80 0.72 0.63 0.41 0.27 0.19 0.16 0.17 0.17 0.17 0.17 0.16 0.17 0.18 0.18 0.17 0.17 0.18 0.19 0.24 0.36 0.53 0.67 0.70 0.69 0.67 0.68 0.72 0.78 0.80 0.80 0.81
1.34 1.29 1.29 1.31 1.30 1.26 1.18 1.13 1.11 1.08 1.01 0.96 0.92 0.93 0.67 0.40 0.27 0.21 0.20 0.21 0.21 0.21 0.21 0.22 0.21 0.21 0.21 0.21 0.20 0.21 0.23 0.27 0.40 0.62 0.80 0.84 0.83 0.84 0.88 0.94 0.98 1.01 0.99
1.36 1.34 1.33 1.34 1.37 1.33 1.23 1.26 1.28 1.18 1.17 1.11 1.06 0.98 0.84 0.65 0.56 0.39 0.27 0.28 0.29 0.27 0.27 0.26 0.24 0.24 0.24 0.24 0.25 0.28 0.30 0.31 0.40 0.60 0.83 0.97 1.00 1.04 1.13 1.22 1.29 1.28 1.19
1.32 1.29 1.29 1.32 1.31 1.32 1.28 1.29 1.33 1.32 1.27 1.22 1.16 1.11 1.10 0.97 0.81 0.73 0.54 0.40 0.38 0.37 0.37 0.37 0.35 0.32 0.31 0.31 0.31 0.36 0.42 0.44 0.51 0.64 0.82 1.00 1.11 1.20 1.30 1.40 1.49 1.51 1.43
1.26 1.21 1.21 1.24 1.28 1.30 1.26 1.27 1.34 1.40 1.40 1.30 1.19 1.09 1.05 1.00 0.90 0.88 0.78 0.59 0.51 0.42 0.41 0.40 0.40 0.40 0.41 0.45 0.49 0.59 0.60 0.62 0.67 0.74 0.87 1.02 1.14 1.23 1.35 1.48 1.58 1.62 1.61
1.25 1.18 1.17 1.19 1.23 1.27 1.32 1.39 1.39 1.38 1.42 1.40 1.34 1.25 1.16 1.05 0.98 1.00 0.98 0.80 0.66 0.53 0.48 0.46 0.45 0.46 0.48 0.51 0.58 0.75 0.75 0.77 0.80 0.85 0.97 1.12 1.17 1.18 1.22 1.31 1.46 1.56 1.60
1.15 1.17 1.22 1.27 1.29 1.30 1.31 1.34 1.32 1.29 1.32 1.32 1.32 1.28 1.23 1.14 1.13 1.14 1.14 1.17 1.06 0.83 0.70 0.64 0.61 0.61 0.63 0.67 0.75 0.85 0.77 0.86 0.84 0.84 0.94 1.03 1.03 1.01 1.00 1.07 1.26 1.44 1.52
1.07 1.11 1.17 1.22 1.23 1.22 1.21 1.23 1.21 1.18 1.22 1.25 1.25 1.25 1.21 1.12 1.12 1.12 1.14 1.22 1.32 1.17 0.87 0.68 0.64 0.64 0.68 0.71 0.80 0.77 0.72 0.86 0.87 0.83 0.84 0.85 0.84 0.82 0.80 0.82 0.91 1.07 1.18
0.90 0.93 1.00 1.07 1.09 1.08 1.07 1.09 1.09 1.06 1.10 1.10 1.11 1.16 1.16 1.10 1.08 1.10 1.13 1.17 1.26 1.31 1.11 0.74 0.63 0.62 0.66 0.68 0.77 0.70 0.65 0.78 0.76 0.75 0.73 0.72 0.71 0.69 0.68 0.69 0.71 0.80 0.89
0.82 0.86 0.89 0.93 0.95 0.96 0.97 0.97 0.95 0.94 0.95 0.95 0.97 0.99 1.02 1.04 1.08 1.09 1.11 1.15 1.21 1.27 1.25 0.92 0.74 0.72 0.75 0.74 0.74 0.68 0.62 0.61 0.60 0.70 0.66 0.62 0.61 0.60 0.60 0.60 0.61 0.64 0.68
0.71 0.71 0.74 0.77 0.78 0.79 0.80 0.83 0.83 0.83 0.82 0.81 0.82 0.87 0.89 0.92 0.96 1.00 1.07 1.12 1.15 1.18 1.20 1.05 0.83 0.74 0.72 0.69 0.66 0.64 0.58 0.54 0.49 0.60 0.58 0.55 0.54 0.52 0.50 0.50 0.54 0.58 0.60
0.72 0.64 0.62 0.63 0.64 0.66 0.67 0.69 0.71 0.71 0.73 0.73 0.73 0.76 0.78 0.84 0.90 0.91 0.94 0.98 0.99 1.01 1.05 1.02 0.85 0.70 0.63 0.60 0.59 0.55 0.50 0.47 0.43 0.47 0.48 0.48 0.48 0.49 0.50 0.49 0.51 0.52 0.52
0.65 0.61 0.57 0.54 0.54 0.57 0.61 0.63 0.65 0.67 0.68 0.69 0.70 0.72 0.74 0.77 0.79 0.81 0.85 0.87 0.87 0.88 0.90 0.92 0.87 0.76 0.69 0.63 0.64 0.60 0.54 0.49 0.45 0.41 0.46 0.47 0.48 0.48 0.44 0.42 0.41 0.43 0.44
0.53 0.53 0.53 0.53 0.51 0.50 0.53 0.57 0.60 0.64 0.66 0.69 0.70 0.71 0.74 0.81 0.82 0.79 0.78 0.77 0.78 0.83 0.88 0.94 0.90 0.77 0.64 0.60 0.59 0.54 0.54 0.53 0.52 0.48 0.47 0.43 0.39 0.35 0.33 0.35 0.37 0.40 0.44
0.43 0.46 0.51 0.55 0.59 0.60 0.73 0.69 0.63 0.64 0.68 0.69 0.68 0.66 0.65 0.70 0.68 0.69 0.68 0.67 0.72 0.80 0.91 0.95 0.85 0.68 0.53 0.47 0.47 0.52 0.57 0.62 0.56 0.40 0.41 0.40 0.37 0.37 0.32 0.30 0.37 0.41 0.42
0.52 0.56 0.60 0.65 0.69 0.76 0.84 0.76 0.71 0.63 0.65 0.66 0.64 0.59 0.55 0.53 0.55 0.48 0.51 0.55 0.57 0.65 0.68 0.61 0.55 0.47 0.44 0.42 0.51 0.61 0.60 0.59 0.48 0.35 0.41 0.45 0.39 0.37 0.32 0.32 0.39 0.37 0.38
0.76 0.80 0.83 0.84 0.84 0.83 0.81 0.72 0.69 0.61 0.58 0.54 0.49 0.44 0.41 0.38 0.36 0.37 0.40 0.48 0.46 0.44 0.43 0.40 0.37 0.35 0.35 0.38 0.48 0.59 0.61 0.60 0.49 0.38 0.39 0.42 0.34 0.31 0.28 0.29 0.36 0.37 0.37
0.87 0.85 0.82 0.80 0.77 0.72 0.67 0.57 0.50 0.43 0.44 0.42 0.37 0.34 0.34 0.32 0.37 0.44 0.44 0.45 0.36 0.31 0.35 0.40 0.42 0.41 0.41 0.41 0.42 0.53 0.64 0.71 0.62 0.41 0.33 0.35 0.30 0.29 0.29 0.28 0.31 0.37 0.37
0.67 0.61 0.57 0.53 0.50 0.47 0.45 0.40 0.37 0.32 0.31 0.29 0.29 0.29 0.34 0.34 0.41 0.48 0.44 0.39 0.33 0.29 0.30 0.34 0.38 0.40 0.38 0.40 0.45 0.45 0.60 0.84 0.73 0.51 0.28 0.33 0.35 0.41 0.55 0.33 0.27 0.30 0.33